EW7906 Weather Reports


time (UTC)temp
F
wind
direction
speed
knots
gust
knots
rain 1hr
in
rain 24hr
in
rain mn
in
humidity
%
barometer
mb
20260905055257 144 210 0.0 3.5 0.00 0.00 0.00 100 1014.1
20260905054520 144 210 0.9 4.3 0.00 0.00 0.00 100 1014.0
20260905054012 144 140 0.0 4.3 0.00 0.00 0.00 100 1014.0
20260905053501 144 125 0.0 3.5 0.00 0.00 0.00 100 1014.0
20260905053230 144 161 0.0 1.7 0.00 0.00 0.00 100 1014.0
20260905052436 144 167 0.0 0.0 0.00 0.00 0.00 100 1014.1
20260905052144 144 167 0.0 0.0 0.00 0.00 0.00 100 1014.1
20260905051353 144 167 0.0 3.5 0.00 0.00 0.00 100 1014.1
20260905050832 144 167 2.6 3.5 0.00 0.00 0.00 100 1014.1
20260905050811 144 156 0.0 2.6 0.00 0.00 0.00 100 1014.1
20260905045808 144 132 0.0 4.3 0.00 0.00 0.00 100 1014.1
20260905045257 144 191 0.0 4.3 0.00 0.00 0.00 100 1014.0
20260905044746 144 146 0.0 5.2 0.00 0.00 0.00 100 1014.1
20260905044517 144 158 0.0 6.1 0.00 0.00 0.00 100 1014.1
20260905044351 144 181 3.5 6.1 0.00 0.00 0.00 100 1013.9
20260905043237 145 177 0.0 4.3 0.00 0.00 0.00 100 1014.0
20260905043009 144 139 0.0 7.8 0.00 0.00 0.00 100 1013.9
20260905042237 145 144 0.0 7.8 0.00 0.00 0.00 100 1014.0
20260905041730 145 144 1.7 5.2 0.00 0.00 0.00 100 1014.0
20260905041659 145 101 0.0 6.1 0.00 0.00 0.00 100 1013.9
20260905040657 145 136 2.6 6.1 0.00 0.00 0.00 100 1014.0
20260905040150 145 151 0.0 5.2 0.00 0.00 0.00 100 1013.9
20260905035647 145 129 0.0 2.6 0.00 0.00 0.00 100 1013.8
20260905035143 145 129 0.0 2.6 0.00 0.00 0.00 100 1013.9
20260905034641 145 129 0.0 2.6 0.00 0.00 0.00 100 1013.8
20260905034407 145 104 0.9 5.2 0.00 0.00 0.00 100 1013.9
20260905033630 145 123 0.0 5.2 0.00 0.00 0.00 100 1013.8
20260905033130 145 118 0.0 0.9 0.00 0.00 0.00 100 1013.8
20260905032625 145 118 0.0 2.6 0.00 0.00 0.00 100 1013.6
20260905032115 145 118 0.9 2.6 0.00 0.00 0.00 100 1013.6
20260905031606 145 188 0.0 0.0 0.00 0.00 0.00 100 1013.6
20260905031057 145 188 0.0 0.0 0.00 0.00 0.00 100 1013.6
20260905030557 145 188 0.0 0.0 0.00 0.00 0.00 100 1013.5
20260905030057 145 188 0.0 0.0 0.00 0.00 0.00 100 1013.4
20260905025827 145 188 0.0 0.0 0.00 0.00 0.00 100 1013.5
20260905025057 145 188 0.0 0.0 0.00 0.00 0.00 100 1013.3
20260905024652 145 188 0.0 2.6 0.00 0.00 0.00 100 1013.2
20260905023526 145 188 0.0 2.6 0.00 0.00 0.00 100 1013.2
20260905023003 145 139 0.0 0.0 0.00 0.00 0.00 100 1013.2
20260905022501 145 139 0.0 1.7 0.00 0.00 0.00 100 1013.1
20260905022001 145 139 0.0 3.5 0.00 0.00 0.00 100 1013.0
20260905021457 145 157 0.0 3.5 0.00 0.00 0.00 100 1013.0
20260905020955 145 115 0.0 0.0 0.00 0.00 0.00 100 1012.9
20260905020433 145 115 0.0 5.2 0.00 0.00 0.00 100 1012.9
20260905015929 145 115 2.6 6.1 0.00 0.00 0.00 100 1012.8
20260905015428 145 137 0.0 6.1 0.00 0.00 0.00 100 1012.8
20260905014917 145 167 2.6 5.2 0.00 0.00 0.00 100 1012.8
20260905014416 145 158 0.0 5.2 0.00 0.00 0.00 100 1012.8
20260905013913 145 130 0.0 4.3 0.00 0.00 0.00 100 1012.8
20260905013357 145 174 1.7 7.0 0.00 0.00 0.00 100 1012.8
20260905012843 145 101 0.9 7.0 0.00 0.00 0.00 100 1012.5
20260905012323 145 172 0.0 5.2 0.00 0.00 0.00 100 1012.5
20260905011802 145 116 0.0 2.6 0.00 0.00 0.00 100 1012.5
20260905011256 145 116 0.0 6.1 0.00 0.00 0.00 100 1012.4
20260905010756 145 170 4.3 6.1 0.00 0.00 0.00 100 1012.3
20260905010257 145 111 2.6 4.3 0.00 0.00 0.00 100 1012.2
20260905005757 146 133 1.7 3.5 0.00 0.00 0.00 100 1012.1
20260905005243 146 165 0.0 5.2 0.00 0.00 0.00 100 1012.1
20260905004743 146 147 0.0 7.8 0.00 0.00 0.00 100 1012.1
20260905004243 146 126 4.3 7.8 0.00 0.00 0.00 100 1012.1
20260905003719 146 139 0.0 5.2 0.00 0.00 0.00 100 1012.0
20260905003157 146 158 2.6 7.0 0.00 0.00 0.00 100 1012.0
20260905002928 146 111 2.6 7.0 0.00 0.00 0.00 100 1011.8
20260905002428 146 151 2.6 6.1 0.00 0.00 0.00 100 1011.8
20260905001912 146 118 3.5 8.7 0.00 0.00 0.00 100 1011.8
20260905001143 146 140 3.5 8.7 0.00 0.00 0.00 100 1011.7
20260905001138 146 105 1.7 8.7 0.00 0.00 0.00 100 1011.8
20260905000139 146 171 4.3 8.7 0.00 0.00 0.00 100 1011.7
20260904235639 146 144 0.9 9.6 0.00 0.00 0.00 100 1011.6
20260904235139 146 171 4.3 9.6 0.00 0.00 0.00 100 1011.6
20260904234637 146 156 4.3 9.6 0.00 0.00 0.00 100 1011.5
20260904234135 146 144 3.5 8.7 0.00 0.00 0.00 100 1011.5
20260904233903 147 161 3.5 9.6 0.00 0.00 0.00 100 1011.4
20260904233628 147 170 5.2 11.3 0.00 0.00 0.00 100 1011.3
20260904232626 147 147 3.5 11.3 0.00 0.00 0.00 100 1011.3
20260904232120 147 154 5.2 8.7 0.00 0.00 0.00 100 1011.4
20260904231620 147 147 1.7 7.8 0.00 0.00 0.00 100 1011.4
20260904231119 147 139 4.3 7.8 0.00 0.00 0.00 100 1011.5
20260904230619 147 158 3.5 7.8 0.00 0.00 0.00 100 1011.5
20260904230118 147 165 4.3 7.8 0.00 0.00 0.00 100 1011.5
20260904225616 147 146 4.3 7.0 0.00 0.00 0.00 100 1011.6
20260904225117 147 184 4.3 7.0 0.00 0.00 0.00 100 1011.6
20260904224616 147 102 2.6 7.8 0.00 0.00 0.00 100 1011.6
20260904224116 147 167 3.5 7.8 0.00 0.00 0.00 100 1011.5
20260904223615 148 156 3.5 8.7 0.00 0.00 0.00 100 1011.6
20260904223117 147 146 5.2 9.6 0.00 0.00 0.00 100 1011.8
20260904222617 148 127 4.3 9.6 0.00 0.00 0.00 100 1011.8
20260904222115 147 135 3.5 8.7 0.00 0.00 0.00 100 1011.8
20260904221615 147 194 5.2 8.7 0.00 0.00 0.00 100 1011.8
20260904221114 148 171 0.0 8.7 0.00 0.00 0.00 100 1011.7
20260904220610 148 147 1.7 8.7 0.00 0.00 0.00 100 1011.8
20260904220058 147 168 5.2 8.7 0.00 0.00 0.00 100 1011.9
20260904215828 147 137 3.5 9.6 0.00 0.00 0.00 100 1011.9
20260904215057 147 208 5.2 9.6 0.00 0.00 0.00 100 1011.9
20260904214829 147 119 1.7 8.7 0.00 0.00 0.00 100 1012.0
20260904214059 148 181 5.2 7.8 0.00 0.00 0.00 100 1012.1
20260904213558 147 161 4.3 7.8 0.00 0.00 0.00 100 1012.1
20260904213057 148 188 1.7 8.7 0.00 0.00 0.00 100 1012.1
20260904212547 148 156 3.5 8.7 0.00 0.00 0.00 100 1012.2
20260904212046 148 172 4.3 7.8 0.00 0.00 0.00 100 1012.3
20260904211547 148 201 4.3 7.0 0.00 0.00 0.00 100 1012.3
20260904211045 148 199 4.3 7.8 0.00 0.00 0.00 100 1012.4
20260904210815 148 171 3.5 9.6 0.00 0.00 0.00 100 1012.5
20260904210045 147 132 3.5 9.6 0.00 0.00 0.00 100 1012.5
20260904205544 147 149 5.2 8.7 0.00 0.00 0.00 100 1012.5
20260904205044 148 137 1.7 8.7 0.00 0.00 0.00 100 1012.5
20260904204534 147 115 4.3 8.7 0.00 0.00 0.00 100 1012.8
20260904204033 147 116 2.6 7.8 0.00 0.00 0.00 100 1012.9
20260904203532 147 163 5.2 7.8 0.00 0.00 0.00 100 1012.8
20260904203030 147 135 5.2 7.8 0.00 0.00 0.00 100 1012.9
20260904202800 147 154 3.5 7.0 0.00 0.00 0.00 100 1012.9
20260904202029 148 109 0.9 7.0 0.00 0.00 0.00 100 1013.0
20260904201528 147 151 4.3 7.8 0.00 0.00 0.00 100 1013.1
20260904201028 147 199 2.6 7.8 0.00 0.00 0.00 100 1013.1
20260904200521 147 112 3.5 10.4 0.00 0.00 0.00 100 1013.2
20260904200019 147 150 4.3 10.4 0.00 0.00 0.00 100 1013.3
20260904195519 147 137 2.6 9.6 0.00 0.00 0.00 100 1013.4
20260904195004 147 125 4.3 9.6 0.00 0.00 0.00 100 1013.4
20260904194505 147 115 2.6 8.7 0.00 0.00 0.00 100 1013.4
20260904194002 147 240 0.9 8.7 0.00 0.00 0.00 100 1013.5
20260904193502 147 171 5.2 8.7 0.00 0.00 0.00 100 1013.5
20260904193001 146 154 4.3 8.7 0.00 0.00 0.00 100 1013.6
20260904192501 146 165 5.2 7.8 0.00 0.00 0.00 100 1013.6
20260904192000 146 137 2.6 5.2 0.00 0.00 0.00 100 1013.9
20260904191459 146 182 0.9 6.1 0.00 0.00 0.00 100 1013.9
20260904190958 146 119 3.5 7.8 0.00 0.00 0.00 100 1014.1
20260904190457 146 132 2.6 10.4 0.00 0.00 0.00 100 1014.1
20260904185958 147 171 5.2 10.4 0.00 0.00 0.00 100 1014.1
20260904185457 147 142 5.2 7.8 0.00 0.00 0.00 100 1014.1
20260904184957 146 70 0.9 7.8 0.00 0.00 0.00 100 1014.2
20260904184457 146 115 5.2 7.8 0.00 0.00 0.00 100 1014.3
20260904183957 147 136 1.7 7.8 0.00 0.00 0.00 100 1014.4
20260904183458 146 146 4.3 7.8 0.00 0.00 0.00 100 1014.4
20260904182957 147 187 4.3 7.8 0.00 0.00 0.00 100 1014.4
20260904182458 147 113 0.0 7.0 0.00 0.00 0.00 100 1014.3
20260904181954 146 172 1.7 7.0 0.00 0.00 0.00 100 1014.4
20260904181453 146 81 0.0 7.0 0.00 0.00 0.00 100 1014.4
20260904180943 146 123 0.0 6.1 0.00 0.00 0.00 100 1014.5
20260904180442 146 140 4.3 6.1 0.00 0.00 0.00 100 1014.6
20260904175940 146 161 0.9 5.2 0.00 0.00 0.00 100 1014.7
20260904175435 146 175 4.3 5.2 0.00 0.00 0.00 100 1014.7
20260904175205 146 165 0.0 7.8 0.00 0.00 0.00 100 1014.8
20260904174413 146 164 1.7 7.8 0.00 0.00 0.00 100 1014.9
20260904174144 146 164 2.6 7.0 0.00 0.00 0.00 100 1014.9
20260904173413 146 150 0.9 6.1 0.00 0.00 0.00 100 1014.9
20260904172902 146 154 4.3 7.0 0.00 0.00 0.00 100 1015.0
20260904172402 146 165 3.5 8.7 0.00 0.00 0.00 100 1015.0
20260904171901 146 170 5.2 8.7 0.00 0.00 0.00 100 1015.1
20260904171402 146 181 4.3 7.8 0.00 0.00 0.00 100 1015.1
20260904170902 145 167 3.5 7.8 0.00 0.00 0.00 100 1015.1
20260904170402 145 151 4.3 7.8 0.00 0.00 0.00 100 1015.1
20260904165859 145 88 0.0 5.2 0.00 0.00 0.00 100 1015.1
20260904165358 145 133 0.9 6.1 0.00 0.00 0.00 100 1015.1
20260904165116 145 111 1.7 6.1 0.00 0.00 0.00 100 1015.1
20260904164328 145 163 0.0 7.0 0.00 0.00 0.00 100 1015.0
20260904163826 145 192 2.6 7.0 0.00 0.00 0.00 100 1015.0
20260904163327 145 172 0.0 3.5 0.00 0.00 0.00 100 1015.0
20260904162757 145 172 1.7 5.2 0.00 0.00 0.00 100 1015.0
20260904162513 145 133 2.6 7.0 0.00 0.00 0.00 100 1015.0
20260904161742 145 151 1.7 7.0 0.00 0.00 0.00 100 1015.0
20260904161237 145 125 1.7 6.1 0.00 0.00 0.00 100 1015.0
20260904160738 145 123 1.7 6.1 0.00 0.00 0.00 100 1014.9
20260904160232 145 229 1.7 6.1 0.00 0.00 0.00 100 1014.9
20260904155731 145 243 1.7 7.8 0.00 0.00 0.00 100 1015.0
20260904155225 145 216 1.7 7.8 0.00 0.00 0.00 100 1014.9
20260904154726 145 125 0.9 7.8 0.00 0.00 0.00 100 1014.9
20260904154225 144 136 0.0 7.0 0.00 0.00 0.00 100 1014.8
20260904153725 145 212 1.7 5.2 0.00 0.00 0.00 100 1014.9
20260904153213 144 147 0.0 0.9 0.00 0.00 0.00 100 1014.8
20260904152651 144 147 0.0 7.0 0.00 0.00 0.00 100 1014.8
20260904152419 144 182 2.6 7.0 0.00 0.00 0.00 100 1014.8
20260904151648 144 191 1.7 6.1 0.00 0.00 0.00 100 1014.7
20260904151419 144 140 0.0 7.0 0.00 0.00 0.00 100 1014.7
20260904150644 144 133 0.0 7.0 0.00 0.00 0.00 100 1014.8
20260904150415 144 178 4.3 10.4 0.00 0.00 0.00 100 1014.7
20260904145643 144 175 1.7 10.4 0.00 0.00 0.00 100 1014.7
20260904145132 144 239 0.0 7.8 0.00 0.00 0.00 100 1014.7
20260904144629 144 225 3.5 7.8 0.00 0.00 0.00 100 1014.7
20260904144129 144 165 0.0 5.2 0.00 0.00 0.00 100 1014.7
20260904143623 144 172 0.0 3.5 0.00 0.00 0.00 100 1014.7
20260904143110 144 164 0.9 4.3 0.00 0.00 0.00 100 1014.7
20260904142611 144 163 0.0 5.2 0.00 0.00 0.00 100 1014.7
20260904142335 144 163 1.7 6.1 0.00 0.00 0.00 100 1014.8
20260904141600 144 247 0.0 6.1 0.00 0.00 0.00 100 1014.8
20260904141058 144 192 0.9 3.5 0.00 0.00 0.00 100 1014.7
20260904140551 144 112 0.0 2.6 0.00 0.00 0.00 100 1014.8
20260904140048 144 112 0.0 2.6 0.00 0.00 0.00 100 1014.8
20260904135540 144 112 0.0 0.0 0.00 0.00 0.00 100 1014.8
20260904135308 144 112 0.0 0.0 0.00 0.00 0.00 1 1014.8
20260904134534 144 112 0.0 0.0 0.00 0.00 0.00 1 1014.7
20260904134025 144 112 0.0 0.0 0.00 0.00 0.00 2 1014.8
20260904133522 144 112 0.0 0.0 0.00 0.00 0.00 2 1014.8
20260904133020 144 112 0.0 0.0 0.00 0.00 0.00 3 1014.8
20260904132519 144 112 0.0 0.0 0.00 0.00 0.00 3 1014.8
20260904132018 144 112 0.0 0.0 0.00 0.00 0.00 3 1014.8
20260904131507 144 112 0.0 0.0 0.00 0.00 0.00 3 1014.8
20260904131009 144 112 0.0 0.0 0.00 0.00 0.00 2 1014.7
20260904131005 144 112 0.0 0.0 0.00 0.00 0.00 1 1014.7
20260904130001 144 112 0.0 0.0 0.00 0.00 0.00 1 1014.7
20260904125456 144 112 0.0 0.0 0.00 0.00 0.00 100 1014.7
20260904125221 144 112 0.0 0.0 0.00 0.00 0.00 100 1014.7
20260904124439 144 112 0.0 0.0 0.00 0.00 0.00 100 1014.6
20260904123937 144 112 0.0 0.0 0.00 0.00 0.00 100 1014.5
20260904123428 144 112 0.0 0.0 0.00 0.00 0.00 100 1014.4
20260904122907 144 112 0.0 0.0 0.00 0.00 0.00 100 1014.3
20260904122629 144 112 0.0 0.0 0.00 0.00 0.00 100 1014.3
20260904121852 144 112 0.0 2.6 0.00 0.00 0.00 100 1014.2
20260904121349 144 112 0.0 5.2 0.00 0.00 0.00 100 1014.0
20260904121343 144 136 0.0 5.2 0.00 0.00 0.00 100 1013.9
20260904120341 144 153 0.0 5.2 0.00 0.00 0.00 100 1013.8
20260904120115 144 136 0.0 6.1 0.00 0.00 0.00 100 1013.8
20260904115331 144 136 0.9 6.1 0.00 0.00 0.00 100 1013.6
20260904114829 144 198 1.7 6.1 0.00 0.00 0.00 100 1013.5
20260904114315 144 174 0.0 4.3 0.00 0.00 0.00 100 1013.5
20260904114045 144 142 0.0 6.1 0.00 0.00 0.00 100 1013.4
20260904113526 144 142 0.0 6.1 0.00 0.00 0.00 1 1013.4
20260904112743 144 167 0.9 4.3 0.00 0.00 0.00 2 1013.4
20260904112243 144 122 0.9 2.6 0.00 0.00 0.00 2 1013.4
20260904111737 144 122 0.0 0.0 0.00 0.00 0.00 3 1013.3
20260904111213 144 122 0.0 0.0 0.00 0.00 0.00 3 1013.2
20260904110706 144 122 0.0 0.0 0.00 0.00 0.00 3 1013.2
20260904110432 144 122 0.0 0.0 0.00 0.00 0.00 2 1013.2
20260904105701 144 122 0.0 0.0 0.00 0.00 0.00 2 1013.2
20260904105144 144 122 0.0 0.0 0.00 0.00 0.00 1 1013.2
20260904104641 144 122 0.0 0.0 0.00 0.00 0.00 100 1013.2
20260904104135 144 122 0.0 0.0 0.00 0.00 0.00 100 1013.1
20260904103625 144 122 0.0 0.0 0.00 0.00 0.00 100 1013.1
20260904103122 144 122 0.0 0.0 0.00 0.00 0.00 100 1013.0
20260904102616 144 122 0.0 0.0 0.00 0.00 0.00 100 1013.0
20260904102105 144 122 0.0 0.0 0.00 0.00 0.00 100 1013.0
20260904101601 144 122 0.0 0.0 0.00 0.00 0.00 100 1012.9
20260904101101 144 122 0.0 0.0 0.00 0.00 0.00 100 1012.9
20260904100544 144 122 0.0 3.5 0.00 0.00 0.00 100 1013.0
20260904100314 144 122 0.0 4.3 0.00 0.00 0.00 100 1012.9
20260904095542 144 146 0.0 4.3 0.00 0.00 0.00 100 1012.8
20260904095024 144 163 0.0 0.0 0.00 0.00 0.00 100 1012.8
20260904094757 144 163 0.0 0.0 0.00 0.00 0.00 100 1012.8
20260904094017 144 163 0.0 5.2 0.00 0.00 0.00 100 1012.6
20260904093441 144 163 1.7 5.2 0.00 0.00 0.00 100 1012.6
20260904092939 144 149 0.0 0.0 0.00 0.00 0.00 100 1012.6
20260904092418 144 149 0.0 7.0 0.00 0.00 0.00 100 1012.8
20260904091916 144 149 0.0 7.0 0.00 0.00 0.00 100 1012.8
20260904091401 144 163 0.0 4.3 0.00 0.00 0.00 100 1012.6
20260904090902 144 113 0.0 4.3 0.00 0.00 0.00 100 1012.6
20260904090358 144 161 0.0 7.8 0.00 0.00 0.00 100 1012.6
20260904085839 144 119 0.0 10.4 0.00 0.00 0.00 100 1012.8
20260904085319 144 160 0.0 9.6 0.00 0.00 0.00 100 1012.8
20260904084819 144 184 0.9 6.1 0.00 0.00 0.00 100 1012.8
20260904084302 144 196 0.9 5.2 0.00 0.00 0.00 100 1012.8
20260904083803 144 230 0.9 5.2 0.00 0.00 0.00 100 1012.8
20260904083259 144 106 0.0 7.8 0.00 0.00 0.00 100 1012.8
20260904082756 144 132 0.0 7.8 0.00 0.00 0.00 100 1012.8
20260904082249 144 147 0.0 6.1 0.00 0.00 0.00 100 1012.8
20260904081743 144 147 0.0 6.1 0.00 0.00 0.00 100 1012.9
20260904081241 144 209 2.6 4.3 0.00 0.00 0.00 100 1012.9
20260904081011 144 156 0.0 7.8 0.00 0.00 0.00 100 1013.0
20260904080226 144 136 1.7 8.7 0.00 0.00 0.00 100 1012.9
20260904075725 144 135 1.7 8.7 0.00 0.00 0.00 100 1012.9
20260904075222 144 126 2.6 8.7 0.00 0.00 0.00 100 1012.9
20260904074723 144 147 3.5 10.4 0.00 0.00 0.00 100 1012.9
20260904074450 144 150 4.3 10.4 0.00 0.00 0.00 100 1013.0
20260904073718 144 150 3.5 6.1 0.00 0.00 0.00 100 1013.0
20260904073218 144 180 3.5 8.7 0.00 0.00 0.00 100 1013.0
20260904072707 144 182 0.9 7.8 0.00 0.00 0.00 100 1013.0
20260904072208 144 185 1.7 6.1 0.00 0.00 0.00 100 1013.1
20260904071705 144 146 3.5 6.1 0.00 0.00 0.00 100 1013.1
20260904071206 144 127 3.5 6.1 0.00 0.00 0.00 100 1013.2
20260904070657 144 154 0.9 7.8 0.00 0.00 0.00 100 1013.2
20260904070427 144 115 2.6 7.8 0.00 0.00 0.00 100 1013.2
20260904065657 144 181 0.9 7.0 0.00 0.00 0.00 100 1013.2
20260904065149 144 172 3.5 7.0 0.00 0.00 0.00 100 1013.2
20260904064650 144 177 5.2 7.0 0.00 0.00 0.00 100 1013.3
20260904064148 144 170 2.6 7.8 0.00 0.00 0.00 100 1013.4
20260904063646 144 161 4.3 7.8 0.00 0.00 0.00 100 1013.3
20260904063145 144 191 2.6 7.8 0.00 0.00 0.00 100 1013.3
20260904062642 144 164 0.0 7.8 0.00 0.00 0.00 100 1013.2
20260904062141 144 154 2.6 7.8 0.00 0.00 0.00 100 1013.1
20260904061641 144 123 0.9 9.6 0.00 0.00 0.00 100 1013.2
20260904061133 144 174 4.3 9.6 0.00 0.00 0.00 100 1013.2
20260904060633 144 184 0.9 9.6 0.00 0.00 0.00 100 1013.2
20260904060131 144 181 3.5 9.6 0.00 0.00 0.00 100 1013.3
20260904055626 144 199 3.5 9.6 0.00 0.00 0.00 100 1013.3